Temp
-6 -6 -6 -6 -6 -6 -5 -6 -6 -6 -6 -6 -6 -5 -5 -5 -6 -5 -5 -5 -4 -4 -4 -3 -4 -4 -3 -4 -4 -4 -3 -3 -3 -4 -4 -4 -4 -4 -5 -5 -5 -5 -5 -5 -5 -4 -4 -4 -4
-6 -6 -6 -6 -6 -5 -6 -6 -6 -7 -6 -6 -6 -6 -5 -6 -6 -5 -5 -5 -5 -5 -4 -4 -5 -4 -3 -3 -4 -5 -4 -4 -4 -3 -4 -4 -4 -5 -5 -5 -5 -6 -6 -6 -5 -5 -5 -5 -5
-6 -6 -6 -6 -5 -5 -6 -5 -6 -7 -7 -7 -7 -6 -6 -5 -5 -5 -5 -5 -5 -5 -4 -4 -4 -4 -4 -3 -3 -5 -4 -4 -4 -4 -4 -4 -4 -5 -5 -6 -6 -6 -6 -6 -6 -6 -6 -6 -6
-6 -6 -6 -5 -5 -6 -6 -5 -6 -6 -6 -7 -7 -7 -6 -6 -6 -6 -6 -6 -6 -5 -5 -4 -4 -4 -5 -4 -4 -4 -4 -4 -5 -4 -4 -5 -5 -5 -6 -6 -6 -6 -6 -6 -6 -6 -6 -6 -6
-6 -6 -6 -5 -5 -5 -6 -5 -5 -6 -6 -7 -7 -7 -6 -6 -6 -6 -6 -6 -6 -6 -6 -5 -4 -4 -5 -5 -4 -4 -4 -4 -5 -5 -5 -5 -5 -6 -6 -6 -6 -6 -6 -6 -6 -6 -6 -6 -6
-6 -6 -6 -6 -6 -5 -6 -5 -5 -6 -6 -6 -7 -7 -7 -6 -6 -6 -6 -6 -6 -6 -5 -5 -5 -5 -5 -5 -4 -4 -4 -4 -5 -6 -5 -5 -5 -6 -6 -6 -7 -7 -7 -6 -6 -6 -6 -6 -6
-6 -6 -6 -6 -6 -6 -6 -5 -6 -6 -6 -6 -6 -6 -7 -6 -6 -6 -6 -6 -6 -6 -6 -5 -6 -5 -6 -6 -5 -4 -5 -5 -5 -6 -6 -6 -6 -6 -6 -7 -7 -7 -7 -7 -7 -6 -6 -6 -6
-6 -6 -6 -6 -6 -6 -6 -6 -5 -6 -6 -6 -6 -6 -7 -7 -6 -6 -6 -6 -6 -6 -6 -6 -6 -5 -5 -5 -5 -5 -5 -5 -6 -6 -6 -6 -6 -6 -7 -7 -7 -7 -7 -7 -6 -6 -6 -6 -6
-6 -6 -6 -6 -6 -6 -6 -6 -6 -6 -5 -6 -6 -6 -6 -7 -7 -6 -6 -6 -6 -6 -6 -6 -6 -5 -5 -6 -5 -6 -6 -5 -6 -6 -6 -6 -6 -7 -7 -7 -7 -7 -8 -7 -7 -6 -6 -6 -7
-6 -6 -6 -6 -6 -6 -6 -6 -6 -6 -5 -5 -6 -6 -6 -7 -7 -7 -6 -6 -6 -6 -6 -7 -6 -6 -5 -6 -6 -6 -6 -6 -6 -6 -6 -6 -6 -7 -7 -7 -7 -7 -7 -8 -7 -7 -7 -7 -7
-5 -5 -5 -6 -5 -5 -5 -5 -5 -5 -5 -6 -6 -6 -6 -6 -7 -7 -7 -7 -6 -6 -6 -7 -7 -7 -6 -6 -6 -6 -6 -6 -6 -6 -7 -7 -7 -7 -7 -7 -7 -7 -8 -7 -7 -7 -7 -7 -7
-6 -6 -7 -8 -8 -7 -7 -7 -6 -5 -5 -6 -6 -6 -6 -6 -7 -7 -7 -7 -7 -6 -6 -6 -7 -7 -6 -6 -6 -7 -7 -7 -7 -7 -7 -7 -7 -7 -7 -7 -7 -8 -8 -8 -8 -7 -7 -8 -8
-7 -8 -9 -11 -12 -11 -11 -11 -9 -8 -7 -6 -6 -6 -6 -7 -7 -7 -7 -7 -7 -6 -6 -6 -7 -8 -7 -6 -6 -7 -7 -7 -7 -7 -7 -7 -7 -7 -7 -7 -7 -8 -8 -8 -8 -8 -8 -8 -8
-9 -11 -12 -13 -13 -13 -12 -12 -12 -12 -10 -8 -8 -6 -6 -7 -8 -7 -7 -7 -7 -7 -7 -6 -7 -8 -8 -7 -7 -7 -8 -7 -7 -7 -7 -7 -7 -7 -7 -7 -8 -8 -8 -8 -8 -8 -8 -8 -8
-12 -12 -13 -13 -13 -13 -13 -13 -13 -13 -12 -12 -10 -8 -7 -7 -8 -8 -8 -7 -7 -7 -7 -7 -7 -7 -7 -8 -7 -7 -8 -8 -8 -7 -7 -7 -7 -7 -7 -7 -8 -8 -8 -8 -8 -8 -8 -8 -8
-12 -13 -13 -13 -13 -13 -13 -13 -13 -13 -14 -13 -12 -11 -8 -8 -8 -9 -8 -8 -8 -7 -7 -7 -7 -7 -7 -8 -7 -7 -7 -7 -7 -7 -7 -7 -7 -7 -7 -7 -8 -8 -8 -8 -8 -8 -8 -8 -8
-12 -13 -13 -13 -13 -12 -12 -12 -14 -13 -13 -13 -13 -12 -12 -10 -8 -8 -9 -9 -8 -7 -7 -7 -7 -7 -8 -7 -7 -8 -7 -7 -7 -7 -7 -7 -7 -7 -8 -8 -8 -9 -9 -8 -8 -8 -8 -8 -8
-13 -12 -13 -12 -13 -12 -12 -12 -13 -14 -13 -12 -12 -12 -12 -12 -12 -9 -9 -9 -9 -8 -7 -7 -7 -8 -8 -8 -8 -8 -7 -7 -7 -7 -7 -7 -8 -8 -8 -8 -9 -9 -9 -9 -8 -9 -8 -8 -8
-13 -12 -12 -12 -13 -12 -12 -12 -13 -14 -13 -12 -13 -12 -13 -12 -12 -12 -10 -9 -10 -9 -8 -7 -7 -8 -8 -8 -8 -8 -8 -7 -7 -7 -8 -8 -9 -7 -7 -8 -8 -8 -8 -9 -9 -8 -9 -8 -9
-13 -12 -12 -12 -13 -12 -12 -12 -12 -13 -12 -12 -12 -13 -13 -12 -13 -13 -12 -10 -10 -10 -9 -8 -8 -9 -9 -9 -9 -8 -8 -7 -7 -7 -7 -8 -8 -8 -7 -8 -9 -9 -9 -9 -9 -9 -9 -9 -9
-13 -12 -12 -13 -12 -13 -12 -12 -13 -12 -12 -12 -13 -13 -13 -13 -13 -14 -13 -13 -11 -10 -9 -8 -9 -9 -9 -9 -9 -9 -8 -8 -7 -7 -8 -7 -7 -7 -8 -9 -9 -9 -9 -9 -9 -9 -9 -9 -9
-13 -13 -13 -13 -13 -14 -13 -11 -13 -13 -13 -13 -13 -14 -14 -14 -14 -15 -15 -13 -13 -11 -10 -9 -9 -9 -10 -10 -9 -9 -9 -8 -8 -8 -8 -8 -7 -8 -8 -8 -8 -9 -9 -9 -9 -9 -9 -9 -9
-13 -13 -13 -14 -14 -13 -13 -13 -13 -13 -13 -14 -14 -14 -14 -15 -14 -14 -15 -15 -13 -12 -10 -10 -9 -10 -10 -10 -10 -9 -9 -9 -9 -8 -8 -8 -7 -8 -8 -8 -8 -8 -9 -9 -9 -9 -9 -9 -9
-14 -13 -14 -14 -13 -14 -15 -14 -14 -13 -14 -14 -14 -15 -15 -15 -15 -14 -15 -16 -15 -13 -11 -10 -9 -10 -10 -10 -10 -10 -9 -9 -9 -8 -8 -8 -8 -8 -8 -8 -8 -9 -9 -9 -9 -9 -9 -10 -9
-14 -14 -13 -13 -15 -15 -14 -14 -13 -14 -14 -14 -15 -15 -16 -17 -17 -16 -16 -16 -15 -14 -12 -10 -10 -10 -10 -10 -10 -10 -9 -9 -9 -9 -9 -9 -8 -9 -9 -9 -9 -8 -9 -9 -9 -9 -10 -10 -9
-15 -15 -15 -14 -15 -14 -14 -14 -14 -14 -15 -15 -16 -16 -17 -18 -18 -17 -17 -16 -15 -15 -12 -11 -10 -10 -11 -10 -10 -10 -9 -10 -9 -9 -8 -9 -9 -9 -9 -9 -9 -9 -8 -9 -9 -10 -9 -9 -9
-15 -15 -15 -15 -15 -14 -14 -14 -15 -14 -15 -16 -17 -16 -17 -18 -18 -18 -17 -16 -16 -15 -13 -12 -11 -10 -11 -11 -11 -10 -10 -10 -10 -9 -9 -9 -9 -9 -9 -9 -10 -9 -9 -9 -9 -10 -9 -9 -10
-16 -15 -15 -15 -15 -15 -14 -15 -15 -14 -15 -16 -17 -16 -17 -18 -18 -17 -17 -16 -16 -16 -15 -13 -13 -11 -11 -10 -11 -10 -10 -9 -9 -9 -9 -10 -9 -9 -9 -10 -10 -10 -10 -10 -10 -10 -9 -10 -10
-16 -16 -16 -15 -16 -16 -14 -15 -15 -15 -15 -15 -16 -16 -17 -17 -17 -17 -16 -16 -16 -16 -15 -14 -14 -12 -12 -11 -10 -10 -9 -9 -9 -9 -10 -9 -9 -9 -10 -10 -10 -10 -10 -10 -10 -10 -10 -10 -10
-16 -15 -16 -15 -16 -16 -16 -15 -15 -15 -15 -15 -16 -16 -17 -17 -17 -17 -17 -16 -16 -16 -15 -15 -15 -13 -12 -10 -10 -11 -10 -10 -9 -9 -9 -10 -10 -10 -9 -9 -9 -9 -10 -10 -10 -9 -10 -10 -10
Height
5866 5867 5868 5869 5873 5873 5875 5877 5876 5876 5875 5876 5879 5882 5885 5889 5889 5889 5889 5890 5892 5895 5896 5896 5897 5899 5899 5900 5905 5908 5911 5911 5912 5912 5911 5909 5908 5908 5908 5909 5910 5909 5910 5910 5910 5909 5908 5908 5907
5863 5863 5864 5864 5867 5869 5872 5869 5870 5869 5870 5872 5874 5877 5881 5882 5881 5881 5886 5888 5889 5890 5891 5890 5893 5896 5897 5899 5900 5904 5907 5910 5910 5910 5910 5908 5908 5907 5908 5908 5910 5910 5909 5909 5908 5908 5907 5907 5906
5858 5858 5859 5859 5862 5865 5865 5861 5863 5863 5865 5867 5869 5873 5876 5874 5877 5881 5884 5885 5886 5888 5888 5888 5890 5892 5895 5896 5898 5900 5903 5906 5908 5908 5909 5908 5908 5908 5908 5907 5909 5909 5909 5909 5907 5907 5907 5906 5904
5854 5856 5855 5855 5856 5859 5858 5855 5857 5857 5859 5860 5865 5867 5867 5872 5872 5876 5880 5881 5883 5885 5886 5886 5886 5888 5890 5894 5894 5896 5899 5902 5904 5905 5906 5906 5906 5907 5908 5906 5907 5908 5908 5908 5907 5906 5905 5905 5904
5849 5850 5850 5852 5849 5851 5851 5848 5849 5850 5852 5854 5859 5860 5860 5866 5868 5872 5874 5876 5879 5882 5881 5883 5883 5884 5887 5890 5891 5892 5895 5898 5900 5902 5903 5904 5904 5905 5906 5907 5906 5907 5908 5907 5906 5905 5905 5904 5903
5843 5844 5844 5846 5842 5843 5845 5841 5841 5842 5845 5849 5851 5852 5856 5861 5862 5866 5869 5871 5874 5876 5878 5878 5880 5880 5883 5886 5887 5887 5890 5893 5896 5899 5900 5901 5901 5902 5903 5905 5906 5906 5906 5906 5905 5904 5904 5903 5902
5838 5838 5838 5839 5835 5835 5839 5837 5834 5834 5837 5841 5843 5847 5848 5854 5855 5859 5864 5866 5869 5871 5874 5874 5875 5877 5879 5881 5884 5885 5887 5889 5891 5894 5896 5898 5898 5899 5902 5903 5903 5903 5903 5903 5903 5902 5902 5901 5900
5831 5830 5831 5830 5827 5828 5827 5828 5826 5826 5827 5830 5835 5838 5840 5838 5851 5851 5856 5860 5862 5865 5868 5871 5872 5873 5875 5877 5880 5882 5883 5884 5887 5890 5892 5894 5895 5896 5898 5900 5900 5900 5901 5900 5899 5899 5899 5899 5898
5823 5822 5820 5820 5815 5815 5818 5819 5817 5817 5819 5820 5823 5830 5832 5836 5839 5843 5847 5852 5856 5859 5862 5864 5866 5869 5869 5871 5874 5876 5879 5881 5883 5886 5889 5891 5892 5893 5894 5896 5896 5897 5897 5897 5896 5895 5895 5896 5895
5814 5813 5807 5807 5800 5799 5803 5807 5807 5807 5807 5811 5811 5819 5821 5822 5827 5833 5837 5842 5848 5852 5856 5859 5860 5863 5865 5866 5868 5870 5874 5878 5881 5883 5885 5886 5888 5889 5890 5891 5892 5893 5892 5892 5893 5893 5892 5892 5891
5801 5797 5793 5790 5785 5785 5786 5789 5791 5794 5797 5796 5798 5804 5808 5812 5817 5824 5828 5832 5837 5843 5848 5851 5854 5856 5859 5862 5863 5866 5868 5872 5877 5879 5880 5882 5884 5885 5886 5886 5888 5888 5888 5888 5889 5890 5889 5888 5887
5789 5784 5778 5773 5771 5770 5770 5771 5774 5774 5781 5779 5783 5790 5793 5798 5804 5811 5816 5820 5826 5832 5839 5843 5847 5851 5853 5856 5858 5861 5864 5866 5869 5873 5874 5877 5880 5881 5881 5883 5883 5884 5883 5884 5885 5887 5886 5885 5883
5776 5772 5766 5761 5758 5757 5755 5755 5755 5759 5754 5761 5769 5776 5780 5785 5792 5797 5803 5809 5816 5821 5828 5834 5840 5844 5847 5851 5852 5855 5858 5861 5864 5867 5868 5870 5873 5876 5876 5878 5879 5879 5879 5880 5881 5882 5883 5882 5879
5766 5762 5757 5753 5752 5749 5746 5744 5737 5743 5741 5743 5749 5756 5763 5768 5774 5782 5790 5796 5802 5811 5816 5824 5831 5836 5840 5845 5847 5849 5851 5856 5859 5860 5863 5866 5867 5870 5872 5874 5875 5875 5875 5876 5877 5878 5878 5877 5876
5760 5757 5751 5748 5747 5746 5741 5735 5730 5733 5732 5731 5733 5737 5744 5750 5758 5766 5775 5783 5789 5799 5805 5812 5821 5827 5833 5838 5841 5843 5846 5849 5852 5855 5858 5860 5862 5865 5867 5869 5870 5871 5872 5873 5874 5874 5874 5873 5873
5754 5751 5747 5744 5743 5740 5737 5733 5729 5726 5725 5724 5721 5722 5726 5733 5742 5751 5760 5769 5777 5786 5794 5801 5811 5819 5824 5829 5836 5838 5841 5844 5846 5849 5851 5854 5857 5859 5861 5862 5864 5866 5867 5870 5871 5870 5870 5870 5870
5749 5747 5743 5740 5736 5732 5729 5727 5724 5720 5717 5715 5714 5710 5709 5715 5723 5734 5743 5755 5763 5772 5781 5789 5799 5809 5815 5821 5826 5831 5834 5836 5839 5842 5846 5849 5851 5854 5857 5859 5860 5861 5862 5864 5865 5865 5865 5865 5865
5744 5739 5737 5735 5732 5726 5721 5718 5712 5710 5709 5706 5703 5702 5699 5700 5707 5715 5725 5736 5747 5758 5768 5778 5787 5797 5805 5811 5816 5821 5826 5829 5833 5837 5841 5845 5848 5851 5854 5856 5858 5857 5859 5859 5861 5860 5861 5861 5860
5737 5734 5730 5728 5725 5718 5716 5709 5705 5702 5698 5694 5693 5691 5690 5688 5695 5692 5699 5713 5728 5741 5754 5765 5775 5786 5794 5802 5808 5813 5820 5824 5828 5832 5837 5839 5843 5847 5850 5853 5853 5853 5855 5855 5856 5855 5855 5855 5854
5729 5726 5724 5723 5720 5715 5709 5701 5698 5692 5685 5683 5681 5677 5677 5676 5679 5681 5685 5693 5709 5727 5741 5752 5763 5774 5785 5794 5801 5806 5811 5816 5820 5825 5830 5834 5839 5843 5844 5846 5848 5850 5851 5851 5851 5850 5850 5849 5847
5722 5719 5719 5716 5711 5708 5699 5691 5689 5679 5673 5671 5668 5665 5662 5662 5661 5667 5670 5677 5689 5709 5726 5739 5750 5762 5774 5783 5790 5797 5801 5806 5811 5818 5824 5829 5833 5835 5838 5840 5842 5844 5845 5846 5845 5845 5844 5843 5840
5718 5716 5712 5709 5704 5699 5689 5681 5678 5669 5665 5661 5658 5654 5650 5648 5645 5651 5657 5661 5675 5689 5710 5726 5738 5750 5764 5774 5781 5789 5797 5805 5810 5815 5819 5823 5827 5830 5832 5835 5837 5838 5838 5840 5840 5838 5838 5836 5834
5713 5711 5708 5704 5698 5692 5684 5674 5670 5661 5656 5653 5648 5644 5640 5635 5632 5634 5640 5648 5659 5677 5692 5710 5724 5739 5752 5762 5772 5782 5789 5796 5802 5806 5812 5817 5820 5824 5826 5828 5831 5832 5831 5832 5833 5833 5832 5830 5828
5706 5705 5702 5698 5692 5683 5673 5665 5660 5653 5649 5643 5639 5634 5625 5616 5611 5612 5625 5633 5644 5661 5678 5695 5711 5726 5740 5752 5763 5772 5781 5788 5795 5801 5808 5812 5815 5818 5820 5822 5824 5824 5825 5825 5826 5827 5826 5823 5822
5702 5698 5692 5692 5684 5680 5669 5661 5655 5648 5641 5634 5629 5622 5610 5596 5588 5589 5603 5616 5630 5643 5660 5681 5699 5713 5728 5743 5755 5764 5774 5782 5788 5795 5799 5804 5809 5810 5813 5815 5815 5816 5818 5817 5820 5820 5817 5816 5816
5699 5695 5688 5682 5676 5673 5666 5657 5649 5641 5633 5626 5618 5609 5596 5585 5574 5571 5587 5605 5622 5634 5650 5668 5689 5703 5719 5734 5747 5756 5765 5774 5780 5785 5792 5796 5799 5803 5804 5808 5809 5810 5809 5811 5812 5811 5811 5809 5810
5693 5690 5685 5678 5677 5665 5659 5653 5646 5633 5624 5618 5613 5604 5594 5587 5578 5577 5587 5601 5616 5628 5641 5658 5676 5696 5711 5728 5740 5748 5758 5766 5772 5779 5786 5787 5793 5796 5797 5801 5803 5805 5804 5806 5804 5803 5802 5802 5803
5689 5685 5683 5678 5669 5661 5658 5649 5639 5633 5622 5616 5609 5603 5595 5590 5584 5588 5594 5605 5616 5625 5638 5652 5669 5689 5705 5719 5728 5741 5749 5755 5763 5773 5776 5781 5786 5790 5792 5792 5794 5796 5797 5797 5796 5794 5795 5795 5794
5685 5681 5677 5673 5670 5661 5650 5648 5638 5630 5621 5612 5604 5600 5596 5592 5589 5591 5598 5606 5614 5623 5636 5650 5664 5681 5697 5709 5720 5731 5740 5749 5756 5768 5770 5776 5780 5783 5782 5783 5784 5784 5785 5786 5787 5787 5786 5787 5786
5681 5677 5674 5670 5666 5660 5652 5647 5636 5628 5619 5611 5603 5600 5597 5595 5594 5593 5597 5602 5610 5623 5634 5647 5661 5676 5691 5706 5713 5724 5734 5743 5755 5759 5765 5768 5773 5772 5772 5773 5772 5775 5777 5777 5779 5775 5780 5779 5778
Wind_Speed
20 21 21 22 24 21 19 20 21 27 30 29 30 27 28 26 29 32 28 25 21 17 17 17 23 26 23 18 15 14 14 14 15 13 10 8 8 7 6 4 3 3 2 3 4 5 7 9 9
21 22 23 24 23 21 20 25 23 27 31 32 31 30 27 29 31 33 26 23 20 20 16 15 22 24 23 22 18 16 16 17 17 14 12 9 7 6 5 4 2 1 2 3 4 6 8 9 9
22 23 26 26 25 22 25 27 27 29 29 30 34 31 30 33 31 29 26 27 24 14 19 20 22 23 23 24 23 19 18 17 17 15 12 9 7 6 5 4 2 2 1 3 4 6 8 10 11
23 24 27 28 28 26 29 32 32 32 33 33 31 35 38 32 31 29 27 26 19 15 17 21 26 28 24 24 25 22 21 20 17 16 14 12 10 9 6 5 4 2 2 2 4 7 8 11 12
26 26 29 27 31 31 32 36 37 36 35 36 33 36 41 36 34 30 30 30 27 24 17 18 25 27 25 26 26 25 24 23 18 18 17 15 13 11 8 6 4 3 3 3 4 7 9 10 13
27 28 30 29 35 34 34 39 39 41 39 37 37 39 37 36 39 35 32 32 28 24 25 22 21 25 30 30 29 28 27 26 22 20 20 18 17 15 11 8 5 4 4 5 6 8 9 10 13
27 29 31 31 38 39 37 38 43 44 42 41 40 39 41 38 40 38 35 34 32 28 26 26 24 34 29 30 31 30 30 28 25 23 23 22 19 17 14 10 8 8 7 7 8 9 10 12 13
31 34 35 37 41 40 42 42 46 47 47 45 42 42 42 47 38 41 39 38 36 33 31 29 28 31 32 31 31 31 32 31 28 25 25 25 22 18 15 13 12 11 10 9 10 11 12 14 15
36 38 42 43 47 49 47 46 49 50 50 50 48 45 45 43 45 44 42 40 39 38 33 28 29 35 33 33 33 32 31 32 31 28 26 25 22 21 18 16 15 15 13 13 13 12 13 15 17
40 43 49 51 55 56 56 53 54 54 54 53 53 48 48 50 50 48 47 45 41 41 38 34 32 30 37 36 37 34 31 30 30 28 26 26 25 23 21 19 18 18 16 16 16 15 14 16 18
44 48 47 47 56 60 61 61 62 61 59 60 59 56 54 52 52 51 51 50 46 44 43 43 43 37 38 44 41 36 34 31 30 30 28 27 26 24 23 22 21 20 19 18 17 16 16 16 19
49 49 51 47 48 51 56 62 66 67 67 69 67 62 62 59 56 55 55 55 52 48 46 46 45 38 38 43 43 38 35 32 34 34 30 27 26 27 25 25 22 22 21 19 18 19 18 17 20
50 50 45 38 40 42 45 44 51 62 72 74 73 69 66 64 61 59 59 58 57 53 50 46 46 43 39 43 45 40 33 34 37 37 34 32 30 29 27 26 24 23 22 21 20 20 19 20 20
44 37 34 33 32 30 33 33 43 36 48 65 75 76 74 70 66 64 63 62 61 58 56 50 46 46 42 46 45 43 43 39 40 39 38 35 34 32 28 27 25 26 23 22 22 21 21 22 22
32 29 22 23 28 18 18 17 24 29 36 39 52 71 80 77 71 69 66 66 66 62 61 56 50 47 47 48 46 44 42 46 41 40 39 38 36 33 30 28 28 26 25 25 23 22 23 24 24
27 27 20 25 28 21 23 19 22 24 25 35 42 47 66 80 79 71 69 69 69 66 63 60 55 50 48 53 51 48 45 46 47 48 46 42 41 38 33 31 30 27 25 26 25 24 24 25 25
26 26 24 26 27 29 30 26 24 28 29 31 29 40 49 59 80 80 73 70 72 70 68 64 60 53 50 51 55 57 53 52 52 50 49 48 45 40 36 33 30 28 27 28 27 25 25 25 26
26 27 27 26 27 31 33 36 37 34 34 32 38 37 38 50 53 78 81 75 74 74 72 68 64 58 54 53 53 56 59 56 57 54 50 49 45 40 34 32 30 30 31 29 28 26 27 26 29
29 28 25 24 27 32 36 40 39 37 37 39 38 38 43 42 36 54 77 81 76 76 75 71 68 62 57 55 54 53 56 56 51 41 41 44 44 44 42 34 40 36 32 31 29 28 28 28 30
27 19 20 20 26 30 33 39 35 36 39 41 38 42 46 49 47 46 56 77 79 76 76 74 71 66 60 58 56 54 58 57 52 47 41 36 34 35 37 36 30 34 34 31 31 31 29 30 35
20 20 17 20 25 28 39 38 30 36 36 37 36 37 40 42 49 48 49 57 74 77 77 77 74 70 63 62 61 59 59 57 58 50 40 35 30 33 33 36 35 36 34 33 33 32 32 34 37
15 16 18 23 28 29 34 39 33 34 31 29 31 34 36 36 40 44 53 51 63 75 76 78 77 73 68 66 63 62 57 52 52 45 39 34 35 37 37 39 39 38 34 35 34 34 33 35 36
15 19 21 23 22 29 26 35 28 30 25 25 28 31 34 39 44 43 52 56 51 70 77 79 80 77 72 70 65 59 57 54 53 50 42 39 40 38 39 40 40 40 38 37 37 37 36 37 38
22 22 22 20 25 30 34 30 24 30 26 28 27 32 37 43 45 52 50 57 55 67 77 80 81 79 74 71 66 65 58 58 56 52 44 45 44 44 42 40 41 41 40 37 40 39 38 39 41
24 25 27 21 27 24 23 24 28 22 31 25 25 29 34 32 31 50 49 59 59 69 81 81 82 82 77 73 67 67 58 58 58 51 54 46 45 46 45 44 44 44 41 40 44 42 41 36 39
19 21 22 24 33 23 16 25 28 29 29 22 26 26 26 19 20 32 48 57 59 63 80 81 81 82 79 73 70 66 61 60 58 54 53 48 49 49 46 46 47 46 43 47 46 43 44 43 41
22 19 21 24 29 27 29 19 24 36 35 24 22 21 18 10 9 13 41 52 54 54 77 80 80 79 78 70 69 66 61 62 65 62 56 57 52 51 49 49 48 48 47 50 48 47 47 46 40
20 20 18 19 29 29 22 23 23 31 26 29 17 13 12 8 7 7 25 43 42 49 69 75 74 80 75 71 77 69 69 66 59 62 59 58 56 49 53 53 55 50 52 51 51 52 47 44 35
20 18 23 21 22 27 31 30 32 28 32 38 20 9 7 1 7 11 19 34 37 46 64 68 66 79 77 71 68 67 60 65 65 57 67 56 55 60 56 52 50 55 54 56 56 59 47 43 39
16 20 25 23 22 23 28 27 26 33 34 32 25 9 6 6 13 23 26 33 39 45 59 65 63 69 78 65 76 75 73 61 51 50 50 56 64 52 45 41 49 49 40 49 55 64 43 36 39
Wind_Direction
263 262 262 261 259 254 250 249 243 234 241 238 238 239 239 241 240 239 242 242 237 234 229 243 221 217 215 203 219 226 239 242 246 233 212 185 163 154 139 130 139 170 230 286 318 341 354 1 0
255 258 259 258 261 260 257 248 244 239 239 241 241 240 236 238 236 239 240 243 238 241 234 218 201 217 221 219 206 226 229 244 241 241 233 205 184 166 150 140 143 175 264 292 321 338 341 348 352
257 257 259 260 258 258 254 245 247 246 241 238 240 242 241 234 237 241 242 246 247 235 240 221 206 212 226 222 214 212 225 234 242 240 238 227 213 202 173 143 137 190 261 307 318 326 328 334 341
261 260 260 260 262 253 254 253 248 246 244 241 237 239 241 238 236 237 236 239 232 234 242 240 227 216 216 225 219 212 217 229 235 233 235 231 220 216 206 166 165 198 223 285 312 314 318 328 332
265 263 261 261 262 258 254 254 252 248 244 243 239 237 241 240 241 236 237 237 239 236 236 242 236 211 216 223 217 211 216 226 230 232 228 226 221 222 216 203 182 212 247 266 292 308 318 324 323
266 266 265 263 262 257 258 253 254 252 247 245 240 240 241 244 242 236 234 239 238 237 230 241 246 214 215 213 217 212 211 219 225 228 227 226 226 225 217 216 212 236 254 272 289 302 309 313 315
273 269 269 266 263 261 255 256 254 254 254 246 242 240 240 241 241 242 237 234 235 230 227 236 255 220 219 215 215 213 212 213 219 222 225 225 224 226 227 223 224 237 248 263 283 292 301 309 315
278 276 275 270 265 261 257 253 253 254 252 252 245 238 234 235 240 241 238 234 233 231 230 236 246 235 218 210 216 213 213 213 216 221 224 223 224 225 228 228 235 244 254 261 274 285 295 306 311
279 278 275 271 270 264 259 254 253 252 251 252 250 244 240 238 234 236 238 234 231 233 228 226 232 223 214 212 214 214 218 218 215 218 222 227 224 225 224 229 234 243 253 262 269 278 293 304 307
282 280 276 272 266 264 261 255 253 252 250 249 249 246 241 235 234 232 234 235 230 229 227 219 219 229 216 214 215 213 214 222 225 222 221 224 226 226 225 229 235 243 250 260 271 284 295 300 305
290 298 292 278 268 263 258 255 251 249 249 248 244 243 241 239 234 233 234 235 233 228 226 225 227 232 233 223 221 212 207 212 222 222 221 224 227 227 228 230 235 243 250 259 272 283 290 293 301
310 305 301 294 283 275 266 257 251 247 244 242 243 240 239 237 232 231 230 232 233 231 228 226 229 229 235 231 220 215 208 208 215 219 220 223 228 228 229 234 236 243 250 259 271 282 286 292 299
314 308 302 298 292 287 281 273 264 253 246 240 240 239 238 237 234 229 228 228 230 233 231 227 227 224 231 236 219 208 211 210 214 217 217 218 222 228 230 235 240 245 251 260 268 278 286 288 295
315 309 306 306 316 324 304 284 273 267 257 251 241 236 235 235 233 229 226 226 226 228 233 228 226 225 224 227 221 221 208 216 216 215 218 219 222 224 230 236 240 248 253 262 269 277 282 285 291
314 312 302 307 328 336 346 325 278 275 270 266 253 245 235 234 233 230 226 223 226 224 228 229 225 223 217 220 213 211 215 216 223 222 221 222 223 225 228 234 240 247 256 262 270 276 279 287 295
314 307 294 301 314 308 314 316 302 302 287 275 265 256 244 239 233 231 227 223 222 224 225 227 225 223 220 220 222 219 217 221 222 225 226 225 227 227 227 229 236 243 254 263 270 274 280 288 295
311 302 279 294 303 306 309 311 299 292 293 285 276 273 259 242 237 232 230 224 221 221 223 224 224 220 219 221 224 229 227 226 224 222 224 226 227 226 228 232 236 240 250 258 264 270 277 285 291
300 303 288 286 292 299 305 308 301 289 292 286 268 268 278 261 244 234 232 227 221 219 220 222 222 218 216 219 225 230 231 229 227 225 229 231 231 231 230 236 236 243 252 258 264 269 277 285 289
305 290 286 272 289 294 308 302 303 307 295 291 287 268 263 265 259 244 231 228 222 217 217 219 221 218 214 217 223 229 230 231 234 236 239 235 238 235 236 240 244 243 249 259 264 266 276 284 285
299 280 271 280 292 301 311 305 307 299 290 286 282 277 267 262 255 249 241 228 223 218 214 217 218 218 214 215 223 229 231 231 233 235 236 235 234 233 232 234 237 238 247 257 263 269 274 281 284
298 274 281 301 302 309 316 311 313 300 286 281 281 277 273 265 248 242 242 235 218 216 213 213 216 216 212 213 219 226 231 233 232 233 236 235 239 238 238 239 242 245 251 257 263 268 277 280 290
298 289 289 299 306 322 314 311 322 305 296 287 287 280 278 267 257 235 233 234 223 211 210 211 214 215 210 212 217 222 231 241 236 233 234 237 240 241 240 242 244 246 251 256 262 267 272 281 289
304 306 299 307 313 315 318 305 316 308 298 294 290 288 285 274 260 246 227 228 226 208 206 207 211 214 209 212 217 220 228 230 231 230 232 237 241 241 242 242 245 247 249 254 260 266 271 279 287
313 308 299 307 313 346 344 325 323 317 316 310 296 291 290 284 257 244 225 218 221 206 201 204 207 211 210 211 216 219 224 229 236 229 230 235 243 245 244 244 245 248 250 256 259 262 270 278 286
307 309 303 323 338 347 354 333 319 328 322 312 311 308 303 289 264 235 218 213 213 201 198 199 204 208 210 209 214 220 221 232 229 223 229 230 239 241 241 244 245 248 251 256 259 261 268 277 282
309 316 310 333 336 342 341 360 343 330 337 320 330 325 322 321 291 237 210 204 207 204 197 196 200 205 208 209 212 218 222 225 219 219 226 233 238 240 242 248 250 249 251 254 256 259 267 276 278
319 329 316 320 331 352 354 340 349 341 335 331 335 337 333 339 19 191 193 195 200 206 197 196 197 202 206 206 211 217 221 226 225 224 228 230 238 243 248 246 247 252 254 255 256 259 265 275 278
320 329 321 306 332 343 345 339 331 337 333 334 325 354 349 336 84 125 182 191 200 205 202 198 196 198 202 205 208 217 220 216 224 227 232 234 236 246 261 247 250 247 252 256 257 261 263 271 282
312 326 321 318 321 336 326 340 334 342 328 329 322 18 45 61 156 160 198 198 200 203 202 199 197 198 200 204 218 213 214 222 231 233 236 231 239 251 257 255 246 245 248 254 257 263 264 267 281
309 316 321 317 313 333 326 349 348 346 322 315 327 25 92 125 162 162 171 178 190 196 198 201 199 200 203 205 210 220 213 217 227 226 228 237 240 254 246 250 252 250 259 261 268 259 263 270 282